This is the latest recevied weather packets stored in our database for station/object CT1ETE-13. If no packets are shown the sender has not sent any weather packets the latest 10 day(s).
| Time | Temp. | Humidity | Pressure | Rain* | Wind** | Luminosity | Snow |
|---|---|---|---|---|---|---|---|
| 1777497252 | 13.89° C | 78% | 1011.2 hPa | 0 mm | - | - | - |
| 1777496351 | 13.89° C | 79% | 1011.1 hPa | 0 mm | - | - | - |
| 1777495449 | 13.89° C | 80% | 1010.8 hPa | 0 mm | - | - | - |
| 1777494549 | 13.89° C | 80% | 1010.6 hPa | 0 mm | - | - | - |
| 1777493649 | 13.89° C | 81% | 1010.3 hPa | 0 mm | - | - | - |
| 1777492750 | 14.44° C | 81% | 1010.1 hPa | 0 mm | - | - | - |
| 1777491849 | 14.44° C | 81% | 1009.8 hPa | 0 mm | - | - | - |
| 1777491009 | 14.44° C | 82% | 1009.5 hPa | 0 mm | - | - | - |
| 1777490048 | 14.44° C | 83% | 1009.3 hPa | 0 mm | - | - | - |
| 1777489145 | 14.44° C | 82% | 1009 hPa | 0 mm | - | - | - |
| 1777488303 | 14.44° C | 82% | 1008.7 hPa | 0 mm | - | - | - |
| 1777487341 | 14.44° C | 82% | 1008.5 hPa | 0 mm | - | - | - |
| 1777486439 | 14.44° C | 80% | 1008.5 hPa | 0 mm | - | - | - |
| 1777485540 | 15° C | 76% | 1008.4 hPa | 0.25 mm | - | - | - |
| 1777484639 | 15° C | 71% | 1008.2 hPa | 0.51 mm | - | - | - |
| 1777483740 | 15° C | 71% | 1008.1 hPa | 1.27 mm | - | - | - |
| 1777482837 | 15° C | 71% | 1008.1 hPa | 2.29 mm | - | - | - |
| 1777481934 | 14.44° C | 73% | 1008.1 hPa | 2.54 mm | - | - | - |
| 1777481033 | 14.44° C | 77% | 1007.9 hPa | 2.29 mm | - | - | - |
| 1777480192 | 14.44° C | 83% | 1007.8 hPa | 1.52 mm | - | - | - |
| 1777479233 | 15° C | 85% | 1007.7 hPa | 0.51 mm | - | - | - |
| 1777478332 | 16.11° C | 84% | 1007.2 hPa | 0 mm | - | - | - |
| 1777477432 | 16.11° C | 85% | 1007 hPa | 0 mm | - | - | - |
| 1777476533 | 16.11° C | 85% | 1007 hPa | 0 mm | - | - | - |
| 1777475692 | 16.11° C | 84% | 1007 hPa | 0 mm | - | - | - |
* Rain latest hour (hover to see other rain measurements)
** Current wind speed in m/s (hover to see current wind gust speed)